User: anonymous   Login
Location: Powder Track
(41.8531°N, 72.3584°W)
Time: 05:46:32
(UTC+00:00)
Language:

A-11 Canister half - Orbit

View from above orbital plane
View from above orbital plane
View from above satellite
View from above satellite

Ground track
Ground track

The orbit data is extracted from the following two-line orbital elements,

1 00051U 60009C   21206.88544571 -.00000052  00000-0  31143-3 0  9997
2 00051  47.2110 179.3027 0109163 282.8667  75.9945 12.18277516713270
Epoch (UTC): 25 July 2021 21:15:02
Eccentricity: 0.0109163
inclination: 47.2110°
perigee height: 1513 km
apogee height: 1687 km
right ascension of ascending node: 179.3027°
argument of perigee: 282.8667°
revolutions per day: 12.18277516
mean anomaly at epoch: 75.9945°
orbit number at epoch: 71327

The dashed part of the orbit path shows where the satellite is in the earth's shadow,  

DLR